Location: Homewood
(41.1836°S, 175.9581°E)
Time: 03:28:38
(UTC+00:00)

Cosmos 2369 Rocket - Visible Passes

Search period start: 19 July 2024 00:00
Search period end: 29 July 2024 00:00
Orbit: 828 x 852 km, 71.0° (Epoch: 18 July)

Date Brightness Start Highest point End Pass type
(mag) Time Alt. Az. Time Alt. Az. Time Alt. Az.
22 Jul 4.4 07:25:51 10° S 07:26:12 11° S 07:26:12 11° S visible
23 Jul 4.2 07:10:23 10° S 07:11:23 13° SSE 07:11:23 13° SSE visible
24 Jul 4.0 06:54:56 10° S 06:56:39 15° SSE 06:56:39 15° SSE visible
24 Jul 4.6 08:37:37 10° SSW 08:38:28 15° SSW 08:38:28 15° SSW visible
25 Jul 3.8 06:39:30 10° S 06:42:01 16° SE 06:42:01 16° SE visible
25 Jul 4.1 08:22:03 10° SSW 08:23:50 21° SSW 08:23:50 21° SSW visible
26 Jul 3.7 06:24:04 10° SSE 06:27:20 15° SE 06:27:31 15° SE visible
26 Jul 3.5 08:06:29 10° SSW 08:09:21 31° SSW 08:09:21 31° SSW visible
27 Jul 3.8 06:08:39 10° SSE 06:11:42 15° SE 06:13:12 13° ESE visible
27 Jul 2.7 07:50:55 10° SSW 07:55:02 49° SSW 07:55:02 49° SSW visible
28 Jul 3.8 05:53:15 10° SSE 05:56:05 14° SE 05:58:54 10° ESE visible
28 Jul 2.0 07:35:22 10° SSW 07:40:59 79° SE 07:40:59 79° SE visible
28 Jul 5.0 09:21:38 10° WSW 09:22:52 12° W 09:22:52 12° W visible
